Location: Beau Repaire
(50.6144°N, 4.0551°E)
Time: 05:16:58
(UTC+00:00)

COSMOS 2428 - Pass Details

Date: 15 May 2026
Orbit: 844 x 855 km, 70.9° (Epoch: 6 June)

Event Time Altitude Azimuth Distance (km) Brightness Sun altitude
Rises 22:49:13 0° 328° (NNW) 3,426 7.2 -19.4°
Reaches altitude 10° 22:51:42 10° 327° (NNW) 2,484 6.2 -19.5°
Maximum altitude 22:57:21 69° 245° (WSW) 908 2.7 -19.7°
Enters shadow 22:59:33 38° 174° (S) 1,277 3.1 -19.8°
